This is the latest recevied weather packets stored in our database for station/object K1AWR. If no packets are shown the sender has not sent any weather packets the latest 1 day(s).
| Time | Temp. | Humidity | Pressure | Rain* | Wind** | Luminosity | Snow |
|---|---|---|---|---|---|---|---|
| 1778064714 | 14.44° C | 83% | 1010.4 hPa | 0 mm | - | 40 W/m² | - |
| 1778064412 | 14.44° C | 83% | 1010.7 hPa | 0 mm | - | 20 W/m² | - |
| 1778062595 | 13.89° C | 84% | 1010.3 hPa | 0 mm | - | 22 W/m² | - |
| 1778062292 | 13.89° C | 84% | 1010.2 hPa | 0 mm | - | 14 W/m² | - |
| 1778061991 | 13.89° C | 83% | 1010.6 hPa | 0 mm | - | 9 W/m² | - |
| 1778061083 | 13.89° C | 83% | 1010.3 hPa | 0 mm | - | 3 W/m² | - |
| 1778060478 | 13.89° C | 83% | 1010.2 hPa | 0 mm | - | 1 W/m² | - |
| 1778059873 | 13.89° C | 83% | 1010.3 hPa | 0 mm | - | 0 W/m² | - |
| 1778059571 | 13.89° C | 82% | 1010.2 hPa | 0 mm | - | 0 W/m² | - |
| 1778059268 | 13.89° C | 82% | 1010.2 hPa | 0 mm | - | 0 W/m² | - |
| 1778058361 | 13.89° C | 82% | 1010.3 hPa | 0 mm | - | 0 W/m² | - |
| 1778058057 | 14.44° C | 81% | 1010.2 hPa | 0 mm | - | 0 W/m² | - |
| 1778057754 | 14.44° C | 81% | 1010.3 hPa | 0 mm | - | 0 W/m² | - |
| 1778057450 | 14.44° C | 81% | 1010.2 hPa | 0 mm | - | 0 W/m² | - |
| 1778056541 | 14.44° C | 80% | 1010.3 hPa | 0 mm | - | 0 W/m² | - |
| 1778055935 | 14.44° C | 80% | 1010.3 hPa | 0 mm | - | 0 W/m² | - |
| 1778055329 | 14.44° C | 80% | 1010.4 hPa | 0 mm | - | 0 W/m² | - |
| 1778055026 | 15° C | 79% | 1010.2 hPa | 0 mm | - | 0 W/m² | - |
| 1778054118 | 14.44° C | 79% | 1010.4 hPa | 0 mm | - | 0 W/m² | - |
| 1778053512 | 15° C | 79% | 1010.4 hPa | 0 mm | - | 0 W/m² | - |
| 1778052907 | 15° C | 79% | 1010.4 hPa | 0 mm | - | 0 W/m² | - |
| 1778052604 | 15° C | 79% | 1010.3 hPa | 0 mm | - | 0 W/m² | - |
| 1778052301 | 15° C | 78% | 1010.3 hPa | 0 mm | - | 0 W/m² | - |
| 1778051999 | 15° C | 77% | 1010.6 hPa | 0 mm | - | 0 W/m² | - |
| 1778050485 | 15.56° C | 76% | 1010.3 hPa | 0 mm | - | 0 W/m² | - |
* Rain latest hour (hover to see other rain measurements)
** Current wind speed in m/s (hover to see current wind gust speed)